Weather in Kolobrzeg

Poland     54°10′09″N   15°33′41″E
temp.,
°C
wind,
m/s
gust,
m/s
humid.,
%
clouds,
%
prec.,
mm/h
press.,
hPa
HPBL,
m
20 april, tue
tue2023:00+6ne610860 0.0 1019133
02:00+5ne56880 0.0 1018101
05:00+5ne45890 0.0 101893
08:00+6ne33874 0.0 101773
11:00+7n22815 0.0 101788
14:00+7n33825 0.0 1016100
17:00+7nne45865 0.0 1015109
20:00+6nne45905 0.0 101459
21 april, wed
wed2123:00+6nne33915 0.0 101427
02:00+6n33915 0.0 101333
05:00+6nw23892 0.0 101222
08:00+6w44894 0.0 101266
11:00+7w67855 0.0 1012160
14:00+7w610841 0.0 1011212
17:00+6wnw91294100 0.1 1010435
20:00+6wsw812775 0.5 1010337
22 april, thu
thu2223:00+6w1114765 0.1 1009741
02:00+4wsw13168092 0.2 10081196
05:00+5wsw141679100 0.3 10071184
08:00+4wsw14158794 0.4 1007940
11:00+5w131679100 1.1 10071417
14:00+4w141590100 1.6 10081073
17:00+5wnw11118278 0.9 1009912
20:00+5wnw9118399 1.2 1010515
23 april, fri
fri2323:00+5wnw91184100 0.3 1011599
02:00+5nw91187100 0.4 1013676
05:00+5nnw898499 0.1 1015694
08:00+5nnw998189 0.3 1018781
11:00+5nw810754 0.1 1020696
14:00+6nw811680 0.1 1021866
17:00+6wnw810685 0.0 1022379
20:00+6w696342 0.0 1021156
24 april, sat
sat2423:00+6ssw81258100 0.0 1020207
02:00+6w10138483 0.2 1018464
05:00+6wnw11138994 0.4 1017651
08:00+6wnw91289100 0.6 1017709
11:00+6nw8108742 0.1 1018599
14:00+5n78775 0.2 1020732
17:00+6wnw46680 0.0 1022401
20:00+6wnw811735 0.0 1022308